[[{"header":{"parameterUnit":"m.s-1","parameterCategory":2,"la1":30.2991,"la2":30.254,"lo1":-89.0895,"lo2":-89.0444,"dy":0.0017,"dx":0.0017,"nx":28,"ny":28,"refTime":"2025-03-10T09:00:00:Z","depth":"0","parameterNumber":2,"parameterNumberName":"U-component_of_CURRENTS"},"data":[0,0,0,0,0,0,0,0,0,0,0,0,0,0,0,0,0,0,0,0,0,0,0,0,0,0,0,0,0,0,0,0,0,0,0,0,0,0,0,0,0,0,0,0,0,0,0,0,0,0,0,0,0,0,0,0,0,0,-0.2417,-0.2418,0,-0.2465,-0.2465,-0.2465,-0.2452,-0.2451,-0.245,-0.245,-0.248,-0.2482,-0.2483,0,0,0,0,0,0,0,0,0,0,0,0,0,-0.236,-0.2361,-0.2417,-0.2418,-0.2419,-0.2465,-0.2465,-0.2466,-0.2452,-0.2451,-0.245,-0.2449,-0.248,-0.2482,-0.2484,0,0,0,0,0,0,0,0,0,0,0,0,0,-0.2392,-0.2361,-0.2417,-0.2419,-0.242,-0.2465,-0.2465,-0.2466,-0.2452,-0.2451,-0.245,-0.2449,-0.2479,-0.2482,-0.2484,-0.2523,0,0,-0.2491,-0.2492,0,0,0,0,0,0,0,0,-0.239,-0.2394,-0.2418,-0.2419,-0.242,-0.2453,-0.2456,-0.2485,-0.2453,-0.2438,-0.245,-0.2448,-0.2472,-0.2475,-0.2484,-0.2524,-0.2525,-0.2491,-0.2493,-0.2494,-0.2494,0,0,0,0,0,0,0,-0.2388,-0.2392,-0.2434,-0.2419,-0.242,-0.2433,-0.2435,-0.2462,-0.2459,-0.2439,-0.2439,-0.2447,-0.2472,-0.2482,-0.2484,-0.2526,-0.2491,-0.2493,-0.2495,-0.2496,-0.2742,-0.2747,0,0,0,0,0,0,-0.2385,-0.239,-0.2433,-0.2436,-0.2404,-0.2435,-0.2438,-0.2442,-0.2459,-0.2462,-0.2448,-0.2447,-0.2478,-0.2482,-0.2486,-0.2597,-0.2494,-0.2496,-0.2497,-0.2737,-0.2743,-0.2749,0,0,0,0,0,0,-0.2383,-0.2388,-0.2431,-0.2415,-0.2422,-0.2437,-0.2442,-0.2444,-0.2447,-0.2467,-0.2468,-0.2449,-0.2477,-0.2482,-0.2533,-0.2595,-0.2497,-0.2499,-0.2731,-0.2739,-0.2746,-0.2779,0,0,0,0,0,0,-0.2381,-0.2387,-0.2382,-0.2415,-0.2423,-0.2462,-0.2443,-0.2445,-0.2455,-0.2453,-0.2469,-0.247,-0.2477,-0.253,-0.2536,-0.2597,-0.2501,-0.2724,-0.2734,-0.2744,-0.2771,-0.2787,-0.28,0,0,0,0,0,-0.2379,-0.238,-0.2381,-0.2386,-0.2417,-0.2463,-0.2469,-0.2474,-0.2456,-0.2469,-0.2493,-0.247,-0.2597,-0.2534,-0.254,-0.2604,-0.272,-0.2732,-0.2743,-0.2765,-0.2784,-0.2799,0,0,0,0,0,0,-0.2341,-0.238,-0.2382,-0.239,-0.2426,-0.2461,-0.2467,-0.2474,-0.2502,-0.2494,-0.2505,-0.2511,-0.259,-0.2605,-0.2536,-0.2717,-0.2667,-0.2681,-0.2683,-0.27,-0.2714,-0.2666,-0.2503,0,0,0,0,0,-0.2335,-0.2347,-0.239,-0.2395,-0.2412,-0.2439,-0.2453,-0.2464,-0.2496,-0.2504,-0.2523,-0.2573,-0.2648,-0.2673,-0.2727,-0.2799,-0.2726,-0.2863,-0.2877,-0.2888,-0.2862,-0.2769,-0.2767,-0.2787,-0.2787,-0.2786,0,0,-0.2319,-0.2342,-0.2347,-0.2388,-0.2409,-0.2464,-0.2443,-0.247,-0.2535,-0.2506,-0.2581,-0.2609,-0.2681,-0.2776,-0.2816,-0.2787,-0.2862,-0.2903,-0.2911,-0.2878,-0.278,-0.2776,-0.2773,-0.2794,-0.2793,-0.2792,0,0,-0.2314,-0.2318,-0.2338,-0.2378,-0.2422,-0.2462,-0.2472,-0.2517,-0.2553,-0.2629,-0.2651,-0.2689,-0.2801,-0.2847,-0.2895,-0.302,-0.2937,-0.3085,-0.3106,-0.3017,-0.301,-0.3004,-0.2944,-0.2931,-0.3092,-0.3092,-0.3092,0,-0.2295,-0.2328,-0.2351,-0.2394,-0.2437,-0.2467,-0.2522,-0.2582,-0.2643,-0.268,-0.2664,-0.279,-0.2831,-0.294,-0.3007,-0.304,-0.2984,-0.3019,-0.3021,-0.3013,-0.3005,-0.2945,-0.293,-0.3095,-0.3095,-0.3094,-0.3094,0,-0.2322,-0.2353,-0.2369,-0.2447,-0.2502,-0.2545,-0.2642,-0.2703,-0.2743,-0.2783,-0.2867,-0.2895,-0.2949,-0.3014,-0.3053,-0.308,-0.3057,-0.3033,-0.2942,-0.3002,-0.294,-0.2924,-0.3099,-0.3098,-0.3097,-0.3096,0,0,-0.2271,-0.237,-0.2375,-0.2419,-0.2532,-0.2576,-0.2715,-0.2827,-0.2872,-0.293,-0.2955,-0.3095,-0.3042,-0.3093,-0.3121,-0.3072,-0.2997,-0.3043,-0.3037,-0.2923,-0.281,-0.2752,-0.2729,-0.2953,-0.295,-0.2948,-0.2796,0,-0.2285,-0.2362,-0.243,-0.2526,-0.2578,-0.2681,-0.2798,-0.2903,-0.2965,-0.2994,-0.3026,-0.3052,-0.3102,-0.3085,-0.3055,-0.3005,-0.2953,-0.3041,-0.2822,-0.2816,-0.2702,-0.2707,-0.2598,-0.2448,-0.2779,-0.2777,-0.2775,0,-0.2297,-0.2348,-0.2434,-0.2562,-0.2594,-0.2665,-0.2813,-0.2917,-0.3007,-0.3041,-0.3051,-0.3036,-0.3031,-0.3006,-0.2914,-0.2965,-0.2895,-0.284,-0.2831,-0.2738,-0.2725,-0.2443,-0.2405,-0.241,-0.2749,-0.2751,-0.2753,0,-0.224,-0.2357,-0.2421,-0.2464,-0.2616,-0.2682,-0.2772,-0.2904,-0.2962,-0.3011,-0.2979,-0.299,-0.292,-0.2851,-0.2795,-0.2827,-0.263,-0.2646,-0.2532,-0.2528,-0.2371,-0.2357,-0.2245,-0.2524,-0.2525,-0.2525,-0.2526,0,-0.2234,-0.2278,-0.2383,-0.2411,-0.2483,-0.2618,-0.2684,-0.2795,-0.286,-0.2869,-0.294,-0.2892,-0.2861,-0.2771,-0.2737,-0.2584,-0.2578,-0.2508,-0.2466,-0.2393,-0.2384,-0.2329,-0.2388,-0.252,-0.2521,-0.2522,-0.2523,0,-0.2159,-0.2233,-0.2292,-0.2418,-0.245,-0.2493,-0.2603,-0.2639,-0.2733,-0.2719,-0.2712,-0.2756,-0.2663,-0.2633,-0.2497,-0.2471,-0.2313,-0.2305,-0.2247,-0.2201,-0.2104,-0.2171,-0.2017,-0.1949,-0.2133,-0.213,-0.2128,0,-0.213,-0.2149,-0.2242,-0.2255,-0.2299,-0.2368,-0.2414,-0.2553,-0.2576,-0.2631,-0.2591,-0.2527,-0.2471,-0.2301,-0.2227,-0.2116,-0.2172,-0.1975,-0.2016,-0.2056,-0.2099,-0.2169,-0.2128,-0.1841,-0.1836,-0.1833,-0.183,0,-0.2057,-0.2079,-0.2117,-0.2135,-0.2165,-0.2205,-0.2266,-0.2263,-0.2402,-0.2393,-0.2366,-0.2315,-0.2188,-0.2046,-0.1943,-0.1874,-0.1944,-0.1896,-0.1919,-0.1838,-0.1918,-0.1845,-0.2028,-0.1798,-0.1801,-0.1803,-0.1805,-0.1806,-0.1978,-0.1968,-0.1999,-0.2005,-0.2033,-0.2031,-0.2004,-0.2061,-0.2064,-0.2038,-0.2109,-0.2024,-0.1958,-0.1789,-0.171,-0.1583,-0.1675,-0.1559,-0.163,-0.1692,-0.164,-0.1778,-0.1521,-0.1522,-0.1524,-0.1525,-0.1526,0,-0.1872,-0.1865,-0.1869,-0.1868,-0.1832,-0.1891,-0.1893,-0.1834,-0.1771,-0.1807,-0.1768,-0.1746,-0.1606,-0.1562,-0.1449,-0.1369,-0.1334,-0.1353,-0.1422,-0.1383,-0.1451,-0.1453,-0.1192,-0.1192,-0.1192,-0.1192,-0.1192,-0.1192,-0.1816,-0.1769,-0.1764,-0.1663,-0.165,-0.1545,-0.1506,-0.1437,-0.1428,-0.1368,-0.1389,-0.1447,-0.1461,-0.1587,-0.1449,-0.1343,-0.1335,-0.1284,-0.1331,-0.1411,-0.1437,-0.1462,-0.1474,-0.1222,-0.1222,-0.1178,-0.1178,-0.1178]},{"header":{"parameterUnit":"m.s-1","parameterCategory":2,"la1":30.2991,"la2":30.254,"lo1":-89.0895,"lo2":-89.0444,"dy":0.0017,"dx":0.0017,"nx":28,"ny":28,"refTime":"2025-03-10T09:00:00:Z","depth":"0","parameterNumber":3,"parameterNumberName":"V-component_of_CURRENTS"},"data":[0,0,0,0,0,0,0,0,0,0,0,0,0,0,0,0,0,0,0,0,0,0,0,0,0,0,0,0,0,0,0,0,0,0,0,0,0,0,0,0,0,0,0,0,0,0,0,0,0,0,0,0,0,0,0,0,0,0,-0.023,-0.0229,0,-0.0159,-0.0158,-0.0157,-0.0105,-0.0105,-0.0104,-0.0104,-0.0005,-0.0003,-0.0,0,0,0,0,0,0,0,0,0,0,0,0,0,-0.0303,-0.0302,-0.023,-0.0229,-0.0228,-0.0159,-0.0158,-0.0157,-0.0105,-0.0105,-0.0104,-0.0104,-0.0006,-0.0003,-0.0,0,0,0,0,0,0,0,0,0,0,0,0,0,-0.0256,-0.0302,-0.023,-0.0194,-0.019,-0.0159,-0.0158,-0.0156,-0.0105,-0.0105,-0.0104,-0.0103,-0.0006,-0.0003,0.0,0.0007,0,0,0.001,0.0012,0,0,0,0,0,0,0,0,-0.0259,-0.0254,-0.02,-0.0196,-0.0192,-0.014,-0.0147,-0.01,-0.0106,-0.0138,-0.0104,-0.0103,-0.0048,-0.0041,-0.003,0.0011,0.0015,0.001,0.0012,0.0014,0.0015,0,0,0,0,0,0,0,-0.0262,-0.0256,-0.0202,-0.0199,-0.0194,-0.0175,-0.0168,-0.0138,-0.0097,-0.0135,-0.0131,-0.0123,-0.0045,-0.0033,-0.0027,0.0017,0.001,0.0013,0.0015,0.0017,0.014,0.0141,0,0,0,0,0,0,-0.0272,-0.0259,-0.0204,-0.02,-0.0224,-0.0174,-0.0166,-0.0157,-0.0098,-0.0088,-0.0123,-0.0121,-0.0039,-0.0031,-0.0023,0.0019,0.0014,0.0017,0.0019,0.0138,0.014,0.0141,0,0,0,0,0,0,-0.0274,-0.0268,-0.0207,-0.0228,-0.0219,-0.0174,-0.0164,-0.0156,-0.0143,-0.0089,-0.0079,-0.0118,-0.0038,-0.0028,-0.0001,0.0022,0.0018,0.0021,0.0137,0.0139,0.0141,0.0083,0,0,0,0,0,0,-0.0276,-0.0269,-0.027,-0.0228,-0.0218,-0.02,-0.0165,-0.0155,-0.0139,-0.0135,-0.0082,-0.0072,-0.0037,-0.0006,0.0003,0.0026,0.0024,0.0135,0.0138,0.014,0.0084,0.0083,0.0083,0,0,0,0,0,-0.0279,-0.0286,-0.027,-0.0263,-0.0219,-0.0201,-0.0194,-0.0159,-0.014,-0.0143,-0.0103,-0.0073,0.0017,-0.0004,0.0006,0.0032,0.0134,0.0137,0.014,0.0084,0.0083,0.0083,0,0,0,0,0,0,-0.0315,-0.028,-0.0262,-0.0256,-0.0234,-0.0192,-0.019,-0.0165,-0.0137,-0.013,-0.0078,-0.0066,-0.0027,0.0009,-0.0014,0.008,0.0089,0.0094,0.0044,0.0043,0.0043,0.0069,0.0027,0,0,0,0,0,-0.0325,-0.0321,-0.0284,-0.0281,-0.0272,-0.0232,-0.022,-0.0198,-0.0165,-0.0151,-0.0114,-0.006,-0.0007,0.0019,0.0061,0.0097,0.012,0.013,0.0129,0.0128,0.016,0.0181,0.0184,0.0151,0.0151,0.0151,0,0,-0.0337,-0.0317,-0.0314,-0.0289,-0.0267,-0.0273,-0.0223,-0.0211,-0.0206,-0.0145,-0.013,-0.0072,0.0,0.0045,0.0069,0.0077,0.0146,0.0132,0.013,0.0163,0.0184,0.0187,0.019,0.0153,0.0152,0.0152,0,0,-0.037,-0.0343,-0.0357,-0.0347,-0.0323,-0.0301,-0.0302,-0.0265,-0.0236,-0.0221,-0.0154,-0.0068,-0.0037,0.006,0.0104,0.0133,0.0135,0.0129,0.0153,0.0171,0.0174,0.0176,0.018,0.0183,0.0136,0.0136,0.0136,0,-0.0388,-0.0399,-0.0359,-0.0375,-0.0376,-0.0321,-0.0345,-0.0309,-0.0267,-0.0216,-0.0228,-0.0082,-0.0011,0.0102,0.0127,0.0137,0.0117,0.0138,0.0167,0.0171,0.0174,0.0178,0.0182,0.0134,0.0134,0.0134,0.0134,0,-0.0435,-0.0447,-0.0455,-0.0459,-0.0455,-0.0464,-0.0419,-0.0389,-0.0354,-0.0289,-0.0189,-0.0097,0.0009,0.0048,0.0098,0.0186,0.015,0.0149,0.0158,0.0173,0.0177,0.0182,0.013,0.0131,0.0132,0.0132,0,0,-0.0467,-0.0487,-0.049,-0.0514,-0.0502,-0.0505,-0.0479,-0.0415,-0.0368,-0.0299,-0.0241,-0.0076,0.0008,0.007,0.0151,0.0202,0.0225,0.0181,0.0183,0.0166,0.0221,0.0274,0.0285,0.0183,0.0185,0.0186,0.0201,0,-0.0518,-0.0576,-0.0566,-0.062,-0.0649,-0.0593,-0.0573,-0.0496,-0.042,-0.0351,-0.0188,-0.0111,0.0,0.004,0.012,0.018,0.024,0.022,0.0228,0.023,0.0259,0.0295,0.0364,0.0389,0.0206,0.0207,0.0208,0,-0.0569,-0.0604,-0.067,-0.0696,-0.0699,-0.0715,-0.0653,-0.0631,-0.0478,-0.0412,-0.0269,-0.0174,-0.0024,0.0015,0.017,0.0122,0.0196,0.0243,0.0244,0.033,0.0296,0.0354,0.0406,0.0612,0.0217,0.0216,0.0215,0,-0.062,-0.0676,-0.0734,-0.0748,-0.0761,-0.0756,-0.075,-0.0626,-0.0588,-0.0453,-0.0418,-0.0232,-0.018,-0.0065,0.0109,0.0097,0.0221,0.021,0.0343,0.0345,0.0438,0.0447,0.0689,0.0332,0.0332,0.0332,0.0332,0,-0.0681,-0.0727,-0.0763,-0.0798,-0.0842,-0.0826,-0.0822,-0.0756,-0.0675,-0.0622,-0.0458,-0.0401,-0.0209,-0.0095,0.0049,0.0222,0.0184,0.0375,0.037,0.0418,0.0425,0.0637,0.0708,0.0333,0.0332,0.0332,0.0332,0,-0.0727,-0.0753,-0.0826,-0.0861,-0.0873,-0.0905,-0.0913,-0.0891,-0.0808,-0.0761,-0.0736,-0.0555,-0.0402,-0.019,-0.0008,0.0145,0.0431,0.0382,0.0429,0.0433,0.0738,0.0801,0.1032,0.1155,0.0501,0.0502,0.0504,0,-0.0756,-0.0798,-0.0878,-0.0922,-0.0945,-0.0988,-0.1003,-0.0955,-0.0937,-0.0838,-0.0829,-0.0668,-0.0516,-0.0221,0.0075,0.0335,0.0513,0.0551,0.0603,0.0805,0.0869,0.0917,0.1007,0.0679,0.0682,0.0684,0.0686,0,-0.0807,-0.0833,-0.0891,-0.0984,-0.1035,-0.109,-0.1117,-0.1129,-0.1065,-0.1024,-0.0946,-0.0836,-0.0493,-0.0147,0.0229,0.0401,0.0718,0.0604,0.0809,0.1055,0.1129,0.1225,0.06,0.0706,0.0704,0.0703,0.0701,0.0701,-0.0831,-0.0885,-0.0959,-0.1042,-0.1108,-0.1172,-0.1201,-0.1218,-0.1215,-0.1143,-0.1036,-0.0823,-0.0285,0.0259,0.0456,0.0949,0.0895,0.1107,0.1166,0.1196,0.1351,0.0777,0.0882,0.0881,0.088,0.0879,0.0878,0,-0.0854,-0.0918,-0.1008,-0.1109,-0.1184,-0.1202,-0.1252,-0.125,-0.1251,-0.116,-0.1056,-0.0445,0.0075,0.0583,0.1252,0.1512,0.1579,0.1639,0.1748,0.1813,0.1308,0.1358,0.1578,0.1578,0.1577,0.1577,0.1577,0.1577,-0.087,-0.0954,-0.1008,-0.114,-0.1207,-0.1265,-0.1286,-0.1272,-0.119,-0.0959,-0.0646,-0.039,0.0376,0.1385,0.2003,0.2062,0.2295,0.2262,0.2374,0.2052,0.2007,0.1965,0.2035,0.2392,0.2393,0.2894,0.2899,0.2903]}],[{"header":{"parameterUnit":"m.s-1","parameterCategory":2,"la1":30.2991,"la2":30.254,"lo1":-89.0895,"lo2":-89.0444,"dy":0.0017,"dx":0.0017,"nx":28,"ny":28,"refTime":"2025-03-10T09:00:00:Z","depth":"2","parameterNumber":2,"parameterNumberName":"U-component_of_CURRENTS"},"data":[0,0,0,0,0,0,0,0,0,0,0,0,0,0,0,0,0,0,0,0,0,0,0,0,0,0,0,0,0,0,0,0,0,0,0,0,0,0,0,0,0,0,0,0,0,0,0,0,0,0,0,0,0,0,0,0,0,0,-0.2271,-0.2271,0,-0.2325,-0.2326,-0.2326,-0.2321,-0.232,-0.232,-0.2319,-0.2345,-0.2346,-0.2348,0,0,0,0,0,0,0,0,0,0,0,0,0,-0.22,-0.2201,-0.227,-0.2271,-0.2272,-0.2325,-0.2326,-0.2326,-0.2321,-0.232,-0.2319,-0.2319,-0.2344,-0.2346,-0.2348,0,0,0,0,0,0,0,0,0,0,0,0,0,-0.2238,-0.2201,-0.227,-0.2277,-0.2278,-0.2325,-0.2326,-0.2326,-0.2321,-0.232,-0.2319,-0.2318,-0.2344,-0.2346,-0.2348,-0.2381,0,0,-0.2354,-0.2355,0,0,0,0,0,0,0,0,-0.2236,-0.2241,-0.2275,-0.2277,-0.2278,-0.2317,-0.231,-0.2344,-0.2322,-0.2303,-0.2319,-0.2318,-0.2335,-0.2337,-0.2348,-0.2383,-0.2384,-0.2354,-0.2355,-0.2356,-0.2357,0,0,0,0,0,0,0,-0.2233,-0.2239,-0.2291,-0.2276,-0.2278,-0.2291,-0.2294,-0.2317,-0.2322,-0.2305,-0.2305,-0.2314,-0.2335,-0.2346,-0.2349,-0.2384,-0.2354,-0.2356,-0.2357,-0.2358,-0.2482,-0.2484,0,0,0,0,0,0,-0.2229,-0.2236,-0.2289,-0.2292,-0.2256,-0.2293,-0.2297,-0.2304,-0.2323,-0.2325,-0.2315,-0.2314,-0.2343,-0.2346,-0.2349,-0.241,-0.2356,-0.2358,-0.2359,-0.248,-0.2482,-0.2485,0,0,0,0,0,0,-0.2228,-0.2233,-0.2287,-0.2267,-0.2274,-0.2295,-0.2303,-0.2306,-0.2315,-0.2331,-0.2332,-0.2321,-0.2343,-0.2347,-0.2385,-0.241,-0.2359,-0.2361,-0.2477,-0.2481,-0.2483,-0.2517,0,0,0,0,0,0,-0.2225,-0.2232,-0.2233,-0.2266,-0.2276,-0.2319,-0.2304,-0.2308,-0.2323,-0.2322,-0.2337,-0.2338,-0.2342,-0.2382,-0.2387,-0.2411,-0.2362,-0.2475,-0.2479,-0.2482,-0.2514,-0.2521,-0.2528,0,0,0,0,0,-0.2223,-0.2229,-0.2232,-0.2239,-0.2276,-0.2321,-0.2327,-0.2336,-0.2324,-0.2338,-0.2354,-0.2338,-0.241,-0.2386,-0.2391,-0.2416,-0.2473,-0.2478,-0.2482,-0.2511,-0.252,-0.2528,0,0,0,0,0,0,-0.2193,-0.2231,-0.2235,-0.225,-0.2285,-0.232,-0.233,-0.2339,-0.2363,-0.2357,-0.2364,-0.2369,-0.2412,-0.2417,-0.2389,-0.2467,-0.2439,-0.2445,-0.2459,-0.2468,-0.2475,-0.2447,-0.2364,0,0,0,0,0,-0.219,-0.2203,-0.2246,-0.2256,-0.2274,-0.2302,-0.2318,-0.233,-0.2358,-0.2366,-0.2382,-0.2405,-0.2438,-0.2453,-0.2479,-0.2521,-0.2482,-0.2543,-0.2551,-0.2556,-0.254,-0.2509,-0.251,-0.25,-0.25,-0.25,0,0,-0.2179,-0.2202,-0.2208,-0.2251,-0.2273,-0.2316,-0.2308,-0.2337,-0.2371,-0.2366,-0.241,-0.2429,-0.2456,-0.2505,-0.2525,-0.2509,-0.2542,-0.2562,-0.2567,-0.2547,-0.2514,-0.2514,-0.2515,-0.2503,-0.2503,-0.2502,0,0,-0.2179,-0.2189,-0.2208,-0.2245,-0.2288,-0.2317,-0.2327,-0.2372,-0.2386,-0.2441,-0.2445,-0.2473,-0.2531,-0.2548,-0.2566,-0.2629,-0.2581,-0.265,-0.2661,-0.2632,-0.2631,-0.263,-0.2582,-0.2577,-0.2653,-0.2653,-0.2653,0,-0.2166,-0.2196,-0.2221,-0.226,-0.2289,-0.232,-0.2359,-0.2392,-0.2444,-0.2451,-0.2459,-0.2526,-0.2548,-0.2591,-0.2622,-0.264,-0.2609,-0.2623,-0.2636,-0.2634,-0.2632,-0.2584,-0.2577,-0.2655,-0.2655,-0.2654,-0.2654,0,-0.219,-0.222,-0.2236,-0.2296,-0.2334,-0.237,-0.2426,-0.2455,-0.2478,-0.2502,-0.2543,-0.2578,-0.2606,-0.2635,-0.2653,-0.2666,-0.2643,-0.2645,-0.2602,-0.2635,-0.2583,-0.2575,-0.2658,-0.2657,-0.2657,-0.2656,0,0,-0.2149,-0.2236,-0.2241,-0.2271,-0.2354,-0.2384,-0.2445,-0.2495,-0.2509,-0.256,-0.2577,-0.2645,-0.2638,-0.2658,-0.2679,-0.2666,-0.2639,-0.2656,-0.2653,-0.2586,-0.2556,-0.2484,-0.2467,-0.264,-0.2639,-0.2638,-0.2524,0,-0.216,-0.2225,-0.2274,-0.2339,-0.2377,-0.2429,-0.2478,-0.2523,-0.2558,-0.2584,-0.2607,-0.2637,-0.2658,-0.2669,-0.2664,-0.265,-0.262,-0.2668,-0.2554,-0.255,-0.2463,-0.2457,-0.2298,-0.2179,-0.2515,-0.2514,-0.2513,0,-0.2169,-0.2211,-0.2273,-0.2348,-0.2367,-0.2412,-0.2466,-0.2517,-0.2562,-0.2581,-0.2605,-0.2625,-0.2637,-0.2644,-0.26,-0.263,-0.2591,-0.2568,-0.2563,-0.2471,-0.2462,-0.2204,-0.2151,-0.2499,-0.25,-0.2501,-0.2502,0,-0.2116,-0.2208,-0.2249,-0.2281,-0.2375,-0.2397,-0.2443,-0.2499,-0.2524,-0.2569,-0.2577,-0.2597,-0.2596,-0.2566,-0.2544,-0.2564,-0.2471,-0.2489,-0.2376,-0.237,-0.2197,-0.2177,-0.2425,-0.2425,-0.2425,-0.2426,-0.2426,0,-0.2106,-0.2135,-0.2222,-0.2243,-0.2274,-0.2358,-0.2384,-0.2429,-0.2484,-0.2495,-0.2561,-0.256,-0.2574,-0.2542,-0.2518,-0.2414,-0.2441,-0.2355,-0.233,-0.2208,-0.2191,-0.2445,-0.2449,-0.2421,-0.2422,-0.2423,-0.2424,0,-0.2039,-0.2103,-0.2144,-0.2228,-0.225,-0.2267,-0.2342,-0.2356,-0.2423,-0.2439,-0.2452,-0.2507,-0.2458,-0.2452,-0.239,-0.2354,-0.2283,-0.2237,-0.2087,-0.2047,-0.2204,-0.2212,-0.2083,-0.2079,-0.2076,-0.2074,-0.2072,0,-0.2012,-0.2027,-0.21,-0.211,-0.2144,-0.2186,-0.2207,-0.2301,-0.2321,-0.2393,-0.2385,-0.2377,-0.2335,-0.2231,-0.2159,-0.2061,-0.2166,-0.1878,-0.1891,-0.2177,-0.2167,-0.2179,-0.2191,-0.1674,-0.1668,-0.1664,-0.1661,0,-0.1945,-0.1966,-0.1994,-0.2011,-0.2035,-0.2061,-0.2104,-0.2114,-0.2212,-0.2227,-0.2228,-0.2206,-0.2118,-0.1957,-0.1859,-0.1793,-0.1888,-0.1786,-0.2095,-0.1802,-0.1786,-0.1779,-0.1804,-0.1623,-0.1626,-0.1629,-0.1631,-0.1633,-0.1876,-0.1866,-0.1893,-0.1895,-0.192,-0.1917,-0.1889,-0.1944,-0.195,-0.1948,-0.202,-0.1936,-0.1903,-0.1664,-0.1554,-0.1472,-0.1604,-0.1554,-0.1568,-0.1587,-0.1577,-0.1559,-0.1349,-0.1351,-0.1353,-0.1355,-0.1356,0,-0.178,-0.1774,-0.1774,-0.1771,-0.1738,-0.1792,-0.1796,-0.1746,-0.1699,-0.1732,-0.1706,-0.1529,-0.1408,-0.138,-0.1184,-0.1135,-0.1132,-0.1096,-0.1112,-0.1149,-0.1183,-0.1155,-0.0813,-0.0811,-0.081,-0.0808,0,0,-0.173,-0.1686,-0.1677,-0.1585,-0.1574,-0.1483,-0.1451,-0.1401,-0.1386,-0.1319,-0.1286,-0.1373,-0.1369,-0.1123,-0.1036,-0.0899,-0.1018,-0.0844,-0.128,-0.1338,-0.137,-0.1443,-0.1441,0,0,0,0,0]},{"header":{"parameterUnit":"m.s-1","parameterCategory":2,"la1":30.2991,"la2":30.254,"lo1":-89.0895,"lo2":-89.0444,"dy":0.0017,"dx":0.0017,"nx":28,"ny":28,"refTime":"2025-03-10T09:00:00:Z","depth":"2","parameterNumber":3,"parameterNumberName":"V-component_of_CURRENTS"},"data":[0,0,0,0,0,0,0,0,0,0,0,0,0,0,0,0,0,0,0,0,0,0,0,0,0,0,0,0,0,0,0,0,0,0,0,0,0,0,0,0,0,0,0,0,0,0,0,0,0,0,0,0,0,0,0,0,0,0,-0.0122,-0.0121,0,-0.0061,-0.006,-0.0059,-0.0011,-0.0011,-0.001,-0.001,0.0073,0.0074,0.0076,0,0,0,0,0,0,0,0,0,0,0,0,0,-0.0176,-0.0175,-0.0122,-0.0121,-0.012,-0.0061,-0.006,-0.0059,-0.0011,-0.0011,-0.001,-0.0009,0.0072,0.0074,0.0076,0,0,0,0,0,0,0,0,0,0,0,0,0,-0.0138,-0.0175,-0.0122,-0.0089,-0.0085,-0.0061,-0.006,-0.0059,-0.0011,-0.0011,-0.001,-0.0009,0.0071,0.0074,0.0076,0.0077,0,0,0.0084,0.0086,0,0,0,0,0,0,0,0,-0.014,-0.0136,-0.0094,-0.0091,-0.0087,-0.0042,-0.0049,-0.0012,-0.0012,-0.004,-0.001,-0.0009,0.0036,0.0041,0.005,0.0081,0.0085,0.0085,0.0086,0.0087,0.0088,0,0,0,0,0,0,0,-0.0142,-0.0138,-0.0098,-0.0094,-0.0089,-0.007,-0.0064,-0.0042,-0.0007,-0.0037,-0.0034,-0.0026,0.0038,0.0048,0.0053,0.0086,0.0085,0.0087,0.0088,0.0089,0.0122,0.0121,0,0,0,0,0,0,-0.0151,-0.0141,-0.01,-0.0096,-0.0112,-0.007,-0.0063,-0.0058,-0.0007,0.0001,-0.0027,-0.0024,0.0043,0.005,0.0056,0.0052,0.0087,0.009,0.0091,0.0123,0.0122,0.0121,0,0,0,0,0,0,-0.0153,-0.0148,-0.0102,-0.0116,-0.0109,-0.007,-0.0064,-0.0057,-0.0046,0.0,0.0009,-0.0023,0.0044,0.0052,0.0069,0.0056,0.0091,0.0093,0.0123,0.0122,0.0121,0.0049,0,0,0,0,0,0,-0.0155,-0.0149,-0.0153,-0.0117,-0.0109,-0.0099,-0.0065,-0.0056,-0.0043,-0.0038,0.0006,0.0015,0.0045,0.0064,0.0071,0.006,0.0095,0.0124,0.0123,0.0122,0.0052,0.0045,0.004,0,0,0,0,0,-0.0157,-0.0168,-0.0153,-0.0148,-0.0113,-0.01,-0.0095,-0.0063,-0.0043,-0.0049,-0.0016,0.0013,0.0061,0.0066,0.0074,0.0063,0.0125,0.0123,0.0122,0.0055,0.0047,0.004,0,0,0,0,0,0,-0.0193,-0.0163,-0.0146,-0.0147,-0.0129,-0.0092,-0.0092,-0.0069,-0.0048,-0.0041,0.0004,0.0014,0.0022,0.0052,0.0056,0.0069,0.0098,0.0098,0.0044,0.0037,0.0031,0.0024,0.0097,0,0,0,0,0,-0.0203,-0.0202,-0.0171,-0.0172,-0.0165,-0.0129,-0.012,-0.01,-0.0073,-0.0062,-0.0031,0.0001,0.0021,0.0036,0.0057,0.0065,0.0117,0.0064,0.0058,0.0052,0.0052,0.0133,0.0134,0.0116,0.0116,0.0116,0,0,-0.0217,-0.02,-0.0199,-0.018,-0.0161,-0.0171,-0.0122,-0.0114,-0.0122,-0.0057,-0.0058,-0.0022,0.0017,0.0023,0.003,0.0048,0.008,0.005,0.0045,0.0048,0.0131,0.0134,0.0135,0.0115,0.0115,0.0115,0,0,-0.0252,-0.023,-0.0245,-0.0238,-0.0217,-0.02,-0.0201,-0.0169,-0.0154,-0.0149,-0.0106,-0.0072,-0.0048,-0.0014,0.0004,-0.0021,0.0041,-0.0021,-0.0053,0.0025,0.0028,0.0031,0.0081,0.0089,-0.002,-0.002,-0.002,0,-0.0271,-0.0285,-0.0249,-0.0266,-0.0269,-0.022,-0.0245,-0.0228,-0.0196,-0.0181,-0.0161,-0.0097,-0.0063,-0.0039,-0.0051,-0.0034,0.0012,-0.0029,0.0018,0.0023,0.0027,0.0078,0.0088,-0.0024,-0.0023,-0.0023,-0.0022,0,-0.0319,-0.0333,-0.0343,-0.0351,-0.035,-0.0362,-0.0337,-0.0329,-0.0301,-0.027,-0.0235,-0.0176,-0.013,-0.0119,-0.0096,-0.0056,-0.0035,-0.0002,0.0038,0.0025,0.0079,0.0091,-0.0029,-0.0027,-0.0026,-0.0025,0,0,-0.0352,-0.0374,-0.0378,-0.0402,-0.0397,-0.0403,-0.0415,-0.0403,-0.0395,-0.0349,-0.0325,-0.0279,-0.0218,-0.0194,-0.0143,-0.008,-0.0018,-0.0037,-0.0031,0.0013,0.0138,0.0162,0.0177,0.0029,0.0031,0.0032,0.0157,0,-0.0403,-0.0462,-0.0454,-0.0512,-0.0542,-0.0509,-0.0521,-0.0499,-0.0462,-0.0425,-0.034,-0.0299,-0.0256,-0.0222,-0.0154,-0.0051,0.0012,-0.0056,0.0144,0.0149,0.0174,0.0192,0.0181,0.0293,0.0169,0.0171,0.0172,0,-0.0453,-0.0489,-0.0556,-0.0592,-0.0599,-0.0621,-0.0617,-0.0621,-0.0554,-0.0515,-0.0443,-0.0367,-0.0277,-0.0228,-0.0051,-0.0096,0.0009,0.0094,0.0102,0.0161,0.0196,0.0291,0.032,0.0193,0.0191,0.019,0.0188,0,-0.0501,-0.0559,-0.0617,-0.0633,-0.0661,-0.0676,-0.0683,-0.0643,-0.0635,-0.0558,-0.0522,-0.0404,-0.0328,-0.0184,-0.0017,-0.0025,0.0187,0.0208,0.0327,0.0329,0.0378,0.0382,0.0344,0.0344,0.0344,0.0343,0.0343,0,-0.056,-0.0606,-0.0644,-0.0678,-0.0734,-0.0729,-0.0757,-0.0737,-0.069,-0.0669,-0.0564,-0.0504,-0.0308,-0.0165,-0.0022,0.0186,0.0193,0.0328,0.0373,0.0349,0.0348,0.031,0.0304,0.0348,0.0347,0.0346,0.0345,0,-0.0603,-0.063,-0.0702,-0.0747,-0.0762,-0.0799,-0.0819,-0.0827,-0.0773,-0.0738,-0.0711,-0.056,-0.0372,-0.018,0.0066,0.0188,0.0378,0.045,0.0391,0.0427,0.0464,0.0453,0.0599,0.0601,0.0602,0.0604,0.0605,0,-0.0631,-0.0673,-0.0752,-0.0796,-0.082,-0.0869,-0.0894,-0.0872,-0.0872,-0.0768,-0.0748,-0.0562,-0.0419,-0.0068,0.0181,0.0443,0.0438,0.0579,0.057,0.0466,0.0496,0.0481,0.0468,0.06,0.0601,0.0602,0.0603,0,-0.0681,-0.0706,-0.0763,-0.0853,-0.0905,-0.0961,-0.0991,-0.1001,-0.0955,-0.0892,-0.0772,-0.0643,-0.031,-0.001,0.0317,0.0467,0.0532,0.0606,0.055,0.0527,0.0476,0.0501,0.0487,0.0611,0.061,0.0609,0.0609,0.0609,-0.0706,-0.0758,-0.0828,-0.0909,-0.0974,-0.1033,-0.1062,-0.1058,-0.103,-0.0907,-0.0788,-0.0551,-0.0282,0.0205,0.0424,0.0632,0.0631,0.0697,0.0691,0.0685,0.0653,0.0607,0.0759,0.0759,0.0759,0.0759,0.0759,0,-0.0733,-0.0792,-0.0878,-0.0974,-0.1045,-0.1065,-0.1108,-0.1097,-0.1046,-0.088,-0.0717,-0.0397,-0.0055,0.0214,0.0558,0.075,0.0728,0.0773,0.0713,0.0705,0.0698,0.0663,0.0774,0.0774,0.0775,0.0775,0,0,-0.0751,-0.0831,-0.088,-0.1003,-0.1068,-0.1124,-0.1141,-0.1095,-0.0981,-0.0813,-0.0612,-0.0343,-0.0019,0.0223,0.0462,0.0633,0.0615,0.0644,0.0619,0.0514,0.0504,0.0649,0.0586,0,0,0,0,0]}],[{"header":{"parameterUnit":"m.s-1","parameterCategory":2,"la1":30.2991,"la2":30.254,"lo1":-89.0895,"lo2":-89.0444,"dy":0.0017,"dx":0.0017,"nx":28,"ny":28,"refTime":"2025-03-10T09:00:00:Z","depth":"4","parameterNumber":2,"parameterNumberName":"U-component_of_CURRENTS"},"data":[0,0,0,0,0,0,0,0,0,0,0,0,0,0,0,0,0,0,0,0,0,0,0,0,0,0,0,0,0,0,0,0,0,0,0,0,0,0,0,0,0,0,0,0,0,0,0,0,0,0,0,0,0,0,0,0,0,0,-0.1643,-0.1644,0,-0.1727,-0.1728,-0.1729,-0.1779,-0.1779,-0.178,-0.178,-0.1859,-0.1861,-0.1863,0,0,0,0,0,0,0,0,0,0,0,0,0,-0.1545,-0.1546,-0.1643,-0.1644,-0.1645,-0.1727,-0.1728,-0.1729,-0.1779,-0.1779,-0.178,-0.178,-0.1858,-0.1861,-0.1863,0,0,0,0,0,0,0,0,0,0,0,0,0,-0.1603,-0.1547,-0.1643,-0.1681,-0.1685,-0.1727,-0.1728,-0.1729,-0.1779,-0.1779,-0.178,-0.178,-0.1858,-0.186,-0.1863,-0.187,0,0,-0.1871,-0.1872,0,0,0,0,0,0,0,0,-0.16,-0.1606,-0.1674,-0.1678,-0.1683,-0.1744,-0.1723,-0.1777,-0.1779,-0.1742,-0.178,-0.1781,-0.182,-0.1826,-0.184,-0.1874,-0.1877,-0.1872,-0.1873,-0.1874,-0.1875,0,0,0,0,0,0,0,-0.1595,-0.1603,-0.1675,-0.1675,-0.1681,-0.17,-0.1709,-0.1733,-0.1777,-0.1745,-0.1749,-0.176,-0.1823,-0.1837,-0.1842,-0.1878,-0.1871,-0.1874,-0.1876,-0.1877,-0.1976,-0.1977,0,0,0,0,0,0,-0.1586,-0.1599,-0.1673,-0.1678,-0.1643,-0.1702,-0.1711,-0.1723,-0.1777,-0.1786,-0.176,-0.1762,-0.1832,-0.1839,-0.1845,-0.1911,-0.1874,-0.1877,-0.1878,-0.1975,-0.1976,-0.1977,0,0,0,0,0,0,-0.1583,-0.1592,-0.1669,-0.1641,-0.1653,-0.1703,-0.1716,-0.1725,-0.1766,-0.1788,-0.1797,-0.1796,-0.1833,-0.1841,-0.1897,-0.1912,-0.1878,-0.1881,-0.1973,-0.1975,-0.1976,-0.2009,0,0,0,0,0,0,-0.158,-0.159,-0.1608,-0.1641,-0.1654,-0.1713,-0.1716,-0.1726,-0.1771,-0.1776,-0.1821,-0.1827,-0.1834,-0.1893,-0.19,-0.1916,-0.1883,-0.1972,-0.1974,-0.1976,-0.2006,-0.2011,-0.2015,0,0,0,0,0,-0.1576,-0.1595,-0.1609,-0.1618,-0.1673,-0.1714,-0.1724,-0.176,-0.1772,-0.1798,-0.1832,-0.1827,-0.1909,-0.1897,-0.1904,-0.1921,-0.1971,-0.1974,-0.1976,-0.2004,-0.201,-0.2015,0,0,0,0,0,0,-0.1562,-0.1603,-0.1618,-0.1649,-0.1689,-0.1724,-0.1752,-0.1775,-0.1822,-0.1834,-0.1851,-0.186,-0.1909,-0.1915,-0.1901,-0.1954,-0.1935,-0.1939,-0.1954,-0.196,-0.1964,-0.1941,-0.1885,0,0,0,0,0,-0.1566,-0.1593,-0.1633,-0.1661,-0.1681,-0.1722,-0.1748,-0.1774,-0.1813,-0.1836,-0.187,-0.1899,-0.1919,-0.1942,-0.1964,-0.2003,-0.1989,-0.2015,-0.202,-0.2023,-0.201,-0.2023,-0.2027,-0.1984,-0.1984,-0.1984,0,0,-0.1569,-0.1595,-0.1611,-0.166,-0.1693,-0.1731,-0.174,-0.1788,-0.1821,-0.1836,-0.1902,-0.1921,-0.1934,-0.1974,-0.1995,-0.1986,-0.2028,-0.2026,-0.2029,-0.2013,-0.2026,-0.203,-0.2033,-0.1986,-0.1986,-0.1985,0,0,-0.1581,-0.1611,-0.1638,-0.1674,-0.1729,-0.1754,-0.1774,-0.1829,-0.1858,-0.192,-0.1928,-0.1954,-0.2015,-0.201,-0.2016,-0.2057,-0.205,-0.2077,-0.2085,-0.2099,-0.2102,-0.2104,-0.2086,-0.2087,-0.208,-0.208,-0.208,0,-0.1586,-0.1621,-0.1654,-0.1691,-0.1722,-0.1767,-0.1803,-0.1839,-0.1909,-0.192,-0.1949,-0.2005,-0.2019,-0.2032,-0.2048,-0.2063,-0.2071,-0.2064,-0.2103,-0.2106,-0.2108,-0.2088,-0.2088,-0.2082,-0.2082,-0.2082,-0.2082,0,-0.1611,-0.1654,-0.1674,-0.1733,-0.177,-0.1811,-0.1859,-0.1899,-0.1941,-0.1966,-0.2009,-0.2037,-0.2059,-0.2072,-0.2078,-0.2096,-0.2096,-0.2106,-0.2087,-0.2114,-0.2091,-0.2091,-0.2085,-0.2084,-0.2084,-0.2083,0,0,-0.1584,-0.1674,-0.1685,-0.1716,-0.1795,-0.1822,-0.1874,-0.1915,-0.1936,-0.2002,-0.2031,-0.206,-0.2071,-0.2077,-0.2088,-0.2102,-0.212,-0.2121,-0.2121,-0.2096,-0.2145,-0.1999,-0.1984,-0.216,-0.216,-0.216,-0.212,0,-0.1597,-0.1664,-0.1708,-0.1772,-0.1806,-0.1856,-0.1893,-0.1934,-0.1978,-0.2021,-0.2037,-0.2076,-0.2076,-0.2099,-0.2111,-0.2129,-0.2124,-0.2129,-0.2127,-0.2125,-0.1987,-0.198,-0.2162,-0.212,-0.212,-0.212,-0.212,0,-0.1601,-0.1646,-0.1711,-0.1778,-0.1796,-0.1842,-0.189,-0.1931,-0.1981,-0.2012,-0.2045,-0.2079,-0.2101,-0.2114,-0.2125,-0.2143,-0.2136,-0.2141,-0.2141,-0.1987,-0.1978,-0.209,-0.2119,-0.2119,-0.2119,-0.2119,-0.2119,0,-0.1547,-0.164,-0.1689,-0.1719,-0.1805,-0.1834,-0.1875,-0.1925,-0.195,-0.2015,-0.2049,-0.208,-0.2115,-0.2126,-0.2132,-0.2148,-0.2146,-0.2162,-0.2008,-0.1997,-0.2129,-0.2127,-0.2148,-0.2148,-0.2149,-0.2149,-0.2149,0,-0.1523,-0.1563,-0.1674,-0.1699,-0.1738,-0.181,-0.1847,-0.1884,-0.1949,-0.1969,-0.2044,-0.2066,-0.2131,-0.2144,-0.2138,-0.2056,-0.214,-0.1985,-0.1972,-0.2143,-0.2143,-0.2128,-0.2126,-0.2147,-0.2147,-0.2148,-0.2148,0,-0.1451,-0.1531,-0.1587,-0.1688,-0.1718,-0.1745,-0.1831,-0.1847,-0.1923,-0.1962,-0.1991,-0.2068,-0.2069,-0.2092,-0.2102,-0.2037,-0.1993,-0.1939,-0.2096,-0.2097,-0.1832,-0.1833,-0.1753,-0.1747,-0.1742,-0.1739,-0.1735,0,-0.1418,-0.1446,-0.1561,-0.1589,-0.1641,-0.1699,-0.1726,-0.1816,-0.1836,-0.1939,-0.1944,-0.1992,-0.202,-0.19,-0.1946,-0.1883,-0.1864,-0.1823,-0.1833,-0.1793,-0.179,-0.1799,-0.1805,-0.1728,-0.1726,-0.1725,-0.1724,0,-0.1345,-0.1403,-0.1446,-0.1504,-0.1554,-0.1592,-0.1649,-0.1654,-0.1747,-0.1846,-0.1836,-0.1827,-0.1815,-0.1799,-0.1752,-0.172,-0.1846,-0.1773,-0.1783,-0.1792,-0.1762,-0.1766,-0.1778,-0.1707,-0.171,-0.1711,-0.1712,0,-0.1287,-0.1297,-0.1363,-0.1392,-0.1453,-0.1461,-0.1509,-0.1532,-0.1565,-0.1685,-0.1679,-0.1728,-0.1801,-0.1712,-0.1681,-0.162,-0.1596,-0.1548,-0.157,-0.1588,-0.1551,-0.1489,-0.1318,0,0,0,0,0,-0.1221,-0.1214,-0.124,-0.1271,-0.1325,-0.1354,-0.1439,-0.1493,-0.1599,-0.1543,-0.1602,-0.158,-0.1531,-0.1563,-0.146,-0.1594,-0.1598,-0.1468,-0.1556,-0.1616,-0.1635,-0.1605,0,0,0,0,0,0,-0.1175,-0.12,-0.1198,-0.1157,-0.1152,-0.1195,-0.1244,-0.1323,-0.1298,-0.1413,-0.139,-0.1475,-0.1445,-0.1554,-0.1424,-0.1427,-0.1447,-0.15,-0.1495,-0.1605,-0.1623,-0.1638,-0.1614,0,0,0,0,0]},{"header":{"parameterUnit":"m.s-1","parameterCategory":2,"la1":30.2991,"la2":30.254,"lo1":-89.0895,"lo2":-89.0444,"dy":0.0017,"dx":0.0017,"nx":28,"ny":28,"refTime":"2025-03-10T09:00:00:Z","depth":"4","parameterNumber":3,"parameterNumberName":"V-component_of_CURRENTS"},"data":[0,0,0,0,0,0,0,0,0,0,0,0,0,0,0,0,0,0,0,0,0,0,0,0,0,0,0,0,0,0,0,0,0,0,0,0,0,0,0,0,0,0,0,0,0,0,0,0,0,0,0,0,0,0,0,0,0,0,-0.008,-0.0079,0,-0.0038,-0.0038,-0.0037,0.0,0.0001,0.0001,0.0002,0.0059,0.006,0.0061,0,0,0,0,0,0,0,0,0,0,0,0,0,-0.0109,-0.0109,-0.008,-0.0079,-0.0079,-0.0038,-0.0038,-0.0037,0.0,0.0001,0.0001,0.0002,0.0058,0.0059,0.0061,0,0,0,0,0,0,0,0,0,0,0,0,0,-0.0085,-0.0109,-0.008,-0.0055,-0.0052,-0.0038,-0.0037,-0.0037,0.0,0.0001,0.0001,0.0002,0.0058,0.0059,0.0061,0.0057,0,0,0.0066,0.0067,0,0,0,0,0,0,0,0,-0.0086,-0.0084,-0.0059,-0.0057,-0.0054,-0.0023,-0.0027,-0.0004,-0.0,-0.002,0.0002,0.0002,0.0032,0.0036,0.0042,0.006,0.0063,0.0066,0.0067,0.0068,0.0068,0,0,0,0,0,0,0,-0.0088,-0.0085,-0.0063,-0.0059,-0.0055,-0.004,-0.0036,-0.0023,0.0002,-0.0018,-0.0015,-0.0011,0.0034,0.004,0.0044,0.0063,0.0066,0.0068,0.0069,0.0069,0.0054,0.0053,0,0,0,0,0,0,-0.0095,-0.0087,-0.0065,-0.0062,-0.0069,-0.004,-0.0036,-0.0034,0.0002,0.0008,-0.0011,-0.0009,0.0037,0.0042,0.0046,0.0019,0.0068,0.0069,0.007,0.0056,0.0054,0.0052,0,0,0,0,0,0,-0.0096,-0.0093,-0.0066,-0.0073,-0.0069,-0.004,-0.0039,-0.0033,-0.0026,0.0007,0.0013,-0.0009,0.0038,0.0043,0.0049,0.0022,0.007,0.0072,0.0057,0.0055,0.0053,-0.0019,0,0,0,0,0,0,-0.0097,-0.0094,-0.0099,-0.0074,-0.0069,-0.0067,-0.0039,-0.0033,-0.0024,-0.002,0.0011,0.0017,0.0039,0.0046,0.0051,0.0025,0.0073,0.0059,0.0056,0.0054,-0.0015,-0.0023,-0.003,0,0,0,0,0,-0.0098,-0.0109,-0.0099,-0.0096,-0.0075,-0.0068,-0.0064,-0.0041,-0.0025,-0.003,-0.0009,0.0016,0.0033,0.0047,0.0052,0.0027,0.006,0.0057,0.0054,-0.0011,-0.0022,-0.003,0,0,0,0,0,0,-0.0126,-0.0106,-0.0094,-0.0099,-0.0088,-0.0062,-0.0064,-0.0046,-0.0033,-0.0028,0.0005,0.0011,0.0003,0.0024,0.0039,0.0013,0.0048,0.0045,-0.0004,-0.0013,-0.0021,-0.0026,0.0074,0,0,0,0,0,-0.0134,-0.0136,-0.0115,-0.012,-0.0116,-0.009,-0.0084,-0.0069,-0.0052,-0.0045,-0.0024,-0.0008,-0.0007,-0.0001,0.0007,-0.0001,0.006,-0.0017,-0.0025,-0.0031,-0.0033,0.0053,0.0054,0.0042,0.0042,0.0042,0,0,-0.0146,-0.0135,-0.0136,-0.0126,-0.0114,-0.0125,-0.0085,-0.0081,-0.0096,-0.0042,-0.0054,-0.0033,-0.0016,-0.003,-0.0033,-0.0013,0.0,-0.0035,-0.0041,-0.0039,0.005,0.0051,0.0053,0.004,0.004,0.0041,0,0,-0.0175,-0.0162,-0.0175,-0.0173,-0.016,-0.015,-0.0151,-0.0129,-0.0124,-0.0129,-0.0103,-0.0096,-0.0086,-0.0082,-0.0079,-0.0124,-0.0045,-0.0126,-0.0166,-0.0083,-0.008,-0.0077,-0.0006,0.0004,-0.0128,-0.0128,-0.0128,0,-0.0191,-0.0206,-0.0179,-0.0196,-0.0202,-0.0166,-0.019,-0.0185,-0.0166,-0.0166,-0.0144,-0.0126,-0.0114,-0.0128,-0.0153,-0.0142,-0.0075,-0.0131,-0.009,-0.0086,-0.0081,-0.0009,0.0003,-0.0132,-0.0131,-0.0131,-0.0131,0,-0.023,-0.0246,-0.0256,-0.0268,-0.0272,-0.0285,-0.0276,-0.028,-0.0264,-0.025,-0.0247,-0.0217,-0.0202,-0.0207,-0.0197,-0.018,-0.0138,-0.0108,-0.006,-0.0084,-0.0007,0.0007,-0.0137,-0.0136,-0.0135,-0.0134,0,0,-0.0255,-0.028,-0.0285,-0.0307,-0.0312,-0.0322,-0.035,-0.036,-0.0368,-0.0342,-0.0339,-0.0344,-0.0302,-0.0296,-0.0269,-0.0209,-0.0137,-0.0152,-0.0146,-0.0073,0.0055,0.0033,0.0046,-0.0082,-0.008,-0.0078,0.0095,0,-0.0297,-0.0348,-0.0348,-0.0404,-0.043,-0.0419,-0.0447,-0.0449,-0.0433,-0.042,-0.0378,-0.0362,-0.0343,-0.0325,-0.0268,-0.0165,-0.0102,-0.0187,0.0059,0.0065,0.0057,0.0061,-0.0072,0.0106,0.0109,0.0112,0.0113,0,-0.0336,-0.0368,-0.043,-0.0474,-0.0483,-0.0512,-0.0537,-0.0555,-0.0531,-0.0512,-0.0476,-0.0421,-0.0364,-0.0324,-0.015,-0.0195,-0.0087,0.0004,0.0014,0.0028,0.0068,0.0136,0.014,0.0138,0.0136,0.0134,0.0132,0,-0.0368,-0.0425,-0.048,-0.0496,-0.0537,-0.0565,-0.0584,-0.0582,-0.0591,-0.0553,-0.0526,-0.0446,-0.0381,-0.0239,-0.0085,-0.0095,0.0137,0.0154,0.0236,0.0236,0.024,0.0235,0.0291,0.029,0.029,0.0289,0.0289,0,-0.041,-0.0454,-0.0501,-0.0532,-0.0595,-0.0604,-0.065,-0.0655,-0.0638,-0.0631,-0.0566,-0.0513,-0.0346,-0.0204,-0.007,0.0121,0.0156,0.0232,0.0281,0.0202,0.0191,0.025,0.0243,0.0296,0.0295,0.0293,0.0292,0,-0.0434,-0.0465,-0.0533,-0.0592,-0.0614,-0.0657,-0.0699,-0.0718,-0.0693,-0.0671,-0.0651,-0.0532,-0.0347,-0.0182,0.0064,0.0144,0.0326,0.0385,0.0281,0.0321,0.0368,0.0355,0.0502,0.0503,0.0503,0.0504,0.0504,0,-0.045,-0.0487,-0.0575,-0.062,-0.0651,-0.071,-0.0746,-0.0752,-0.0757,-0.0674,-0.0651,-0.0482,-0.0387,-0.0052,0.0105,0.036,0.0383,0.0467,0.0408,0.0358,0.0391,0.0377,0.0364,0.0505,0.0505,0.0505,0.0505,0,-0.0478,-0.0511,-0.0564,-0.0656,-0.0714,-0.0773,-0.0813,-0.0817,-0.0794,-0.0765,-0.0617,-0.0457,-0.0254,-0.0036,0.0153,0.0331,0.0404,0.0474,0.0473,0.0419,0.0363,0.0393,0.0379,0.0507,0.0507,0.0507,0.0507,0,-0.0492,-0.0536,-0.0607,-0.0683,-0.076,-0.0809,-0.0832,-0.0808,-0.0796,-0.0694,-0.0636,-0.0423,-0.0295,-0.0047,0.0132,0.0292,0.0326,0.0361,0.0367,0.0367,0.0253,0.0157,0.0287,0,0,0,0,0,-0.0501,-0.0551,-0.0629,-0.0714,-0.0787,-0.0826,-0.0864,-0.0869,-0.0835,-0.073,-0.068,-0.0487,-0.0205,-0.0081,0.0081,0.0115,0.0326,0.0305,0.0363,0.0518,0.0516,0.04,0,0,0,0,0,0,-0.0511,-0.0582,-0.0625,-0.0716,-0.0774,-0.0845,-0.0869,-0.0848,-0.0782,-0.0717,-0.056,-0.0463,-0.019,-0.0288,0.0084,0.0131,0.0184,0.0441,0.0444,0.052,0.0518,0.0516,0.0395,0,0,0,0,0]}]]